Main page
METAR-TAF:

METAR-TAF

Airports :

Oil platform

K13-a, Netherlands

latitude: 53-13-04N, longitude: 3-13-13E, elevation: 31 m

Current weather observation

The report was made 19 minutes ago, at 13:25 UTC
Wind 15 kt from the West
Temperature 9°C
Humidity 66%
Pressure 998 hPa

METAR: EHJR 131325Z AUTO 28015KT //// // ///////// 09/03 Q0998 RE// W12/H16

Time: 14:44 (13:44 UTC)


TAF: missing

Weather observations and forecasts of more than 4000 airports (METAR and TAF reports).

The available stations are represented by yellow and red dots on the map.

Hover mouse over dot to see the name of the station.

Then click to see weather observations and forecasts.

To change the map : click on the green buttons with a black cross to zoom in, on the green button with a dash to zoom out, or on the green arrows for adjacent maps.


METAR-TAF: